NOAA 16 DEB, 41536

Orbit data source: Space-Track

NOAA 16 DEB, 41536 is space debris in SSO originally from a launch on Thu, 21 Sep 2000 UTC launched from the Air Force Western Test Range (AFWTR). Debris objects in space refer to the collection of defunct objects orbiting the Earth. Examples of debris include non-operational satellites, rocket bodies, and fragments generated from explosions, collisions, or faulty payload assembly.

Loading next visibility...
NOAA 16 DEB details
Identifier
41536, 2000-055NL
Orbit
SSO
Last TLE update2 days ago
Origin
Flag of USNOAA (US)
ManufacturerUnknown
MissionSpacecraft
Bus & MotorUnknown
MassUnknown
Launch date (UTC)
2000-09-21 (24 years ago)
Launch vehicleUnknown
Launch site
Air Force Western Test Range (AFWTR)
Object type
Payload
Rocket body
Debris
Shape & HBRUnknown
Radar Cross SectionSmall (<0.1 m²)

Expand to show TLE details & history

TLE from 2 days ago
0 NOAA 16 DEB
1 41536U 00055NL  24360.06224490  .00010821  00000-0  42382-2 0  9994
2 41536  98.7399  88.1348 0011779 331.9666  28.0880 14.29575149462215
Epoch: 2024-12-25T01:29Z
Definitive object data (Epoch: 2024-12-25T01:29:37.959Z)
Latitude-0.00002°
Longitude-28.33475°
Altitude788.626 km
Speed7.463 km/s
True Right ascension05h 52m 32s
True Declination0° 00' 00"
Sunlit
Object was in full shadow at TLE epoch
Visualization TLE readout
Latitude-68.04903°
Longitude131.17098°
Altitude816.729 km
Speed7.445 km/s
Apparent Right ascension10h 15m 16s
Apparent Declination-69° 56' 40"
Sunlit
Object is in daylight
Visualization observer readout
Local Sidereal Time20:02:01
Azimuth199.341° SSW
Elevation-55.342°
Doppler factor1
Orbital elements
Apogee altitude798.742 km
Perigee altitude781.855 km
Semi-major axis7,168.436 km
Eccentricity0.0011779
Inclination98.7399°
RAAN88.1348°
Arg. of periapsis331.9666°
True anomaly28.15163°
Mean anomaly28.088°
Eccentric anomaly28.11981°
Mean motion3.57607 °/min
BSTAR0.0042382
Orbital period100.67 mins
Loading maneuver chart data...
Loading historical data...
Loading historical data...
Loading historical data...
Loading historical data...
Loading historical data...
Loading historical data...
Loading historical data...

NOAA 16 DEB Visibility forecast

Observer location: undefined°, undefined

Span
Click to sort rows by Start time (UTC) header in descending order
Start Az.
Max El. time (UTC)
Max El. Az.
Max El.
End time (UTC)
End Az.
9 mins2024-12-27 05:41:09.770Z147.499° SSE2024-12-27 05:45:09.770Z91.894° ESE39.268°2024-12-27 05:50:09.770Z356.326° N
4 mins2024-12-27 07:24:09.770Z250.63° W2024-12-27 07:25:09.770Z264.245° W15.936°2024-12-27 07:28:09.770Z302.233° NW
6 mins2024-12-27 17:56:09.770Z53.986° ENE2024-12-27 17:59:09.770Z95.496° ESE19.949°2024-12-27 18:02:09.770Z135.708° SSE
8 mins2024-12-27 19:35:09.770Z354.587° N2024-12-27 19:39:09.770Z275.879° WNW35.009°2024-12-27 19:43:09.770Z220.381° SW
|